Regional Weather Roundup
Issued by NWS Sterling, VA

Home | Current Version | Previous Version | Graphics & Text | Print | Product List | Glossary On
Versions: 1 2 3 4 5 6 7 8 9 10 11 12 13 14 15 16 17 18 19 20 21 22 23 24 25 26 27 28
000
ASUS41 KLWX 232011
RWRLWX

REGIONAL WEATHER ROUNDUP
NATIONAL WEATHER SERVICE BALTIMORE MD/WASHINGTON DC
400 PM EDT SUN JUL 23 2017

Note: "FAIR" indicates few or no clouds below 12,000 feet
with no significant weather and/or obstructions to visibility.
 TC=TEMPERATURE CELSIUS

 * =Non NWS site. Station does not report precipitation (e.g. rain,
    snow, etc.), thunder, or fog.

DCZ001-MDZ009-015-VAZ040>042-051-053>054-232100-
WASHINGTON METRO

CITY           SKY/WX    TMP DP  RH WIND       PRES   REMARKS
WASHINGTON NAT PTSUNNY   80  76  87 S10       29.80S
DULLES         CLOUDY    81  73  76 S12       29.79S
ANDREWS AFB    CLOUDY    77  73  88 S9        29.80F
FT BELVOIR     CLOUDY    83  76  79 S3        29.79F HX  90
QUANTICO       LGT RAIN  84  79  85 S6        29.80F HX  96
COLLEGE PARK*  PTSUNNY   79  74  84 S3        29.78F
LEESBURG*      CLOUDY    82  79  89 SW6       29.79F HX  93
MANASSAS*      CLOUDY    82  75  79 SW6       29.79F
GAITHERSBURG*  CLOUDY    86  73  65 SE9       29.80F HX  93

$$

MDZ006>007-011-014-232100-
BALTIMORE METRO

CITY           SKY/WX    TMP DP  RH WIND       PRES   REMARKS
BWI AIRPORT    CLOUDY    83  74  74 S7        29.76F
MD SCIENCE CTR   N/A     88  73  61 MISG      29.76S HX  95
MARTIN STATE   PTSUNNY   84  81  89 S12       29.77F HX  98
ANNAPOLIS      CLOUDY    78  78 100 S8        29.76F
FORT MEADE*    CLOUDY    81  73  78 S5        29.80F

$$

MDZ012-015-019>023-232100-
MARYLAND EASTERN SHORE

CITY           SKY/WX    TMP DP  RH WIND       PRES   REMARKS
OCEAN CITY     PTSUNNY   85  77  77 W6        29.79R HX  95
SALISBURY      HVY RAIN  82  75  78 NW13      29.80R
BAY BRIDGE AP* LGT RAIN  75  73  94 S10       29.77F FOG
CAMBRIDGE*     PTSUNNY   75  73  94 CALM      29.82R FOG
EASTON*        LGT RAIN  77  73  88 SW8       29.85S

$$

MDZ017>025-232100-
SOUTHERN MARYLAND

CITY           SKY/WX    TMP DP  RH WIND       PRES   REMARKS
PATUXENT RIVER LGT RAIN  80  76  87 NE6       29.78F
ST INIGOES     CLOUDY    87  76  69 VRB5      29.78F HX  97
LEONARDTOWN*   PTSUNNY   79  73  83 NE3       29.81S

$$

MDZ003>005-232100-
NORTH CENTRAL MARYLAND

CITY           SKY/WX    TMP DP  RH WIND       PRES   REMARKS
FREDERICK*     PTSUNNY   86  72  62 SW6       29.79F HX  92
HAGERSTOWN APT PTSUNNY   88  71  57 W13G18    29.77F HX  94
WESTMINSTER*   CLOUDY    91  73  55 W7        29.78F HX 100

$$

MDZ501>502-232100-
WESTERN MARYLAND

CITY           SKY/WX    TMP DP  RH WIND       PRES   REMARKS
OAKLAND*       PTSUNNY   66  64  94 W8        29.91S
CUMBERLAND*    CLOUDY    77  70  78 NW6       29.86S

$$

VAZ025>031-232100-
SHENANDOAH VALLEY

CITY           SKY/WX    TMP DP  RH WIND       PRES   REMARKS
WINCHESTER*    CLOUDY    79  72  78 NW6         N/A
FRONT ROYAL*   CLOUDY    84  72  65 SW6       29.80F
LURAY*         CLOUDY    86  70  58 S9        29.83S HX  90
NEW MARKET*    CLOUDY    83  69  60 CALM      29.81F
STAUNTON*      CLOUDY    89  67  48 W9        29.88S HX  91
WAYNESBORO*    PTSUNNY   86  68  55 CALM      29.87F

$$

WVZ021-048>050-054>055-232100-
EASTERN WEST VIRGINIA PANHANDLE

CITY           SKY/WX    TMP DP  RH WIND       PRES   REMARKS
MARTINSBURG    CLOUDY    83  69  62 W16       29.78F
PETERSBURG*    CLOUDY    84  68  57 NW6       29.85S

$$

VAZ036>039-050-232100-
CENTRAL FOOTHILLS

CITY           SKY/WX    TMP DP  RH WIND       PRES   REMARKS
CHARLOTTESVILL MOSUNNY   92  67  43 CALM      29.82F HX  95
CULPEPER*      MOSUNNY   88  74  63 SW6       29.81F HX  96
ORANGE*        SUNNY     90  68  48 SW9       29.81F HX  93
GORDONSVILLE*  MOSUNNY   91  70  49 W5        29.81S HX  96
WARRENTON*     MOSUNNY   87  72  60 SW8       29.80F HX  93

$$

VAZ055>057-232100-
NORTH AND CENTRAL PIEDMONT

CITY           SKY/WX    TMP DP  RH WIND       PRES   REMARKS
FREDERICKSBRG* MOSUNNY   87  77  71 MISG      29.79F HX  98
STAFFORD*      MOSUNNY   85  76  74 CALM      29.84F HX  95

$$

NCZ024-NYZ072-PAZ021-071-VAZ022-071-232100-
OTHER REGIONAL OBSERVATIONS

CITY           SKY/WX    TMP DP  RH WIND       PRES   REMARKS
NEW YORK CITY  CLOUDY    78  69  73 VRB3      29.84F
PHILADELPHIA   PTSUNNY   89  71  55 E9        29.78S HX  95
PITTSBURGH     CLOUDY    76  71  85 SW10      29.79F
ROANOKE        PTSUNNY   93  63  36 NW14      29.88F HX  94
RICHMOND       PTSUNNY   95  68  41 SW10      29.78F HX  99
RALEIGH        MOSUNNY  100  65  31 W7        29.81F HX 103

$$

ANZ530>537-232100-
MARINE OBSERVATIONS

STATION/POSITION TIME  TEMP    WIND        PRES
                       AIR SEA DIR/SP/G
                 (UTC) (F)     (DEG/KT/KT) (MB)
THOMAS PT LIGHT  2000   77 83  200/ 18/ 20   N/A
BALT KEY BRIDGE  1948   81     200/  9/ 12 1007.4F
COVE POINT       1948   79      30/  7/  8 1009.7F
LEWISETTA        1948   86 85  360/  5/  7 1008.6F
SOLOMONS ISLAND  1948   79 85   60/  6/  7   N/A
PINEY POINT      1942          360/ 12/ 13   N/A

$$





USA.gov is the U.S. government's official web portal to all federal, state and local government web resources and services.